SCP
1 1 1 1 1 0 0 0 0 0 0 0 0 0 0 0 0 0 0 0 0 0 0 0 0 0 0 0 0 0 0 0 0 0 0 0 1 1
2 1 1 1 1 1 1 0 0 0 0 0 0 0 0 0 0 0 0 0 0 0 0 0 0 0 0 0 0 0 0 0 0 0 0 0 0 1
2 1 1 1 1 1 1 1 1 0 0 0 0 0 0 0 0 0 0 0 0 0 0 0 0 0 0 0 0 0 0 0 0 0 0 0 0 0
1 1 1 1 1 1 1 1 1 1 0 0 0 0 0 0 0 0 0 0 0 0 0 0 0 0 0 0 0 0 0 0 0 0 0 0 0 0
1 1 1 1 2 2 2 1 1 1 1 1 0 0 0 0 0 0 0 0 0 0 0 0 0 0 0 0 0 0 0 0 0 0 0 0 0 0
2 2 1 2 2 2 2 2 2 2 1 1 1 0 0 0 0 0 0 0 0 0 0 0 0 0 0 0 0 0 0 0 0 0 0 0 0 0
2 2 2 1 1 2 2 2 2 2 2 1 1 1 0 0 0 0 0 0 0 0 0 0 0 0 0 0 0 0 0 0 0 0 0 0 0 0
3 2 2 1 1 1 1 2 2 2 2 2 2 1 1 0 0 0 0 0 0 0 0 0 0 0 0 0 0 0 0 0 0 0 0 0 0 0
3 3 2 2 1 1 1 1 1 2 2 2 2 2 1 1 1 0 0 0 0 0 0 0 0 0 0 0 0 0 0 0 0 0 0 0 0 0
3 3 3 2 2 1 1 1 1 1 1 1 1 1 1 1 1 1 0 0 0 0 0 0 0 0 0 0 0 0 0 0 0 0 0 0 0 0
2 2 2 2 2 1 1 1 1 1 1 1 1 1 1 1 1 1 1 0 0 0 0 0 0 0 0 0 0 0 0 0 0 0 0 0 0 0
1 1 1 1 1 0 0 1 1 1 1 1 1 1 0 0 0 0 1 0 0 0 0 0 0 0 0 0 0 0 0 0 0 0 0 0 0 0
1 1 1 1 0 0 0 0 1 1 1 1 1 1 1 0 0 0 0 0 0 0 0 0 0 0 0 0 0 0 0 0 0 0 0 0 0 0
2 1 1 0 0 0 0 0 0 0 0 0 1 1 1 1 0 0 0 0 0 0 0 0 0 0 0 0 0 0 0 0 0 0 0 0 0 0
1 1 1 0 0 0 0 0 0 0 0 0 0 1 1 1 0 0 0 0 0 0 0 0 0 0 0 0 0 0 0 0 0 0 0 0 0 0
1 0 0 0 0 0 0 0 0 0 0 0 0 0 0 0 0 0 0 0 0 0 0 0 0 0 0 0 0 0 0 0 0 0 0 0 0 0
0 0 0 0 0 0 0 0 0 0 0 0 0 0 0 0 0 0 0 0 0 0 0 0 0 0 0 0 0 0 0 0 0 0 0 0 0 0
0 0 0 0 0 0 0 0 0 0 0 0 0 0 0 0 0 0 0 0 0 0 1 1 0 0 0 0 0 0 0 0 0 0 0 0 0 0
0 0 0 0 0 0 0 0 0 0 0 0 0 0 0 0 0 0 0 0 1 1 1 0 0 0 0 0 0 0 0 0 0 0 0 0 0 0
0 0 0 0 0 0 0 0 0 0 0 0 0 0 0 0 0 0 0 1 1 0 0 0 0 0 0 0 0 0 0 0 0 0 0 0 0 0
0 0 0 0 0 0 0 0 0 0 0 0 0 0 0 0 0 0 0 0 0 0 0 0 0 0 0 0 0 0 0 0 0 0 0 0 0 0
0 0 0 0 0 0 0 0 0 0 0 0 0 0 0 0 0 0 0 0 0 0 0 0 0 0 0 0 0 0 0 0 0 0 0 0 0 0
0 0 0 0 0 0 0 0 0 0 0 0 0 0 0 0 0 0 0 0 0 0 0 0 0 0 0 0 0 0 0 0 0 0 0 0 0 0
Wind_Speed
4 4 3 3 2 3 3 3 4 2 3 3 2 3 4 4 7 6 6 10 12 13 13 13 13 13 12 12 12 12 11 11 11 11 11 11 11 11
4 4 4 3 3 2 2 3 3 4 3 3 3 3 3 4 6 5 6 9 12 13 13 14 14 13 13 12 12 12 12 12 12 12 11 11 11 11
5 5 6 5 3 3 2 2 2 3 3 3 2 2 2 3 3 3 4 4 5 11 12 13 13 13 13 13 13 13 13 13 12 12 12 12 12 12
6 6 7 5 5 3 3 3 3 3 4 4 2 1 2 3 3 3 3 4 4 8 11 12 13 13 13 13 13 13 13 12 12 12 12 11 12 12
7 7 7 6 5 4 4 4 3 3 3 3 3 2 2 2 1 2 3 2 4 5 8 10 11 12 12 13 12 12 12 12 12 12 12 11 11 11
7 7 7 7 7 6 5 5 4 3 3 3 2 2 2 2 1 2 2 2 3 3 3 4 7 9 10 10 10 11 12 12 13 12 11 11 11 11
7 7 7 8 9 7 5 5 5 4 3 3 3 2 2 1 2 2 3 2 3 2 2 2 2 2 3 6 8 9 10 10 11 11 11 11 11 11
6 6 6 7 8 9 10 9 8 7 5 4 3 4 4 4 3 2 2 1 2 2 1 2 1 2 3 3 5 8 8 9 9 10 10 11 11 11
6 5 5 5 7 6 6 7 7 8 9 6 5 6 5 4 3 2 2 3 3 2 1 3 2 3 3 3 6 6 6 7 7 8 9 10 10 10
6 6 6 5 5 6 5 4 4 5 6 6 5 5 5 4 4 4 4 3 2 2 2 2 2 2 3 2 4 4 5 6 7 8 8 8 9 9
4 4 5 5 6 7 5 4 3 3 3 4 5 5 4 4 4 2 1 1 2 2 1 2 2 2 2 2 2 3 4 5 5 6 7 7 8 7
2 2 3 3 3 5 5 5 4 4 2 1 1 2 3 3 4 4 4 3 2 2 2 2 1 0 2 2 2 2 2 4 5 5 5 5 5 3
1 0 0 1 3 3 4 3 4 3 2 1 1 0 1 1 1 2 3 4 3 3 2 2 1 1 2 2 2 2 2 2 2 3 4 6 6 4
2 1 1 3 4 3 2 2 2 2 1 1 1 0 1 1 2 1 2 2 3 4 2 2 2 2 2 2 3 3 2 2 2 2 2 4 5 6
2 4 4 4 4 3 4 3 2 2 2 2 0 1 1 1 1 1 2 1 1 1 1 0 1 2 2 3 3 3 3 3 2 2 3 3 3 2
2 4 5 6 5 4 4 3 2 2 2 1 0 0 1 1 1 1 1 1 2 3 3 2 1 1 2 3 2 3 2 3 3 3 3 3 3 2
4 4 4 4 3 3 3 2 2 2 2 1 1 1 2 2 2 1 1 1 1 2 3 3 2 1 2 2 2 2 3 3 3 3 2 3 3 3
6 4 3 3 2 2 2 2 2 2 1 1 1 1 1 1 1 2 1 1 1 1 2 2 3 3 3 2 2 2 2 3 3 3 2 2 3 3
5 4 3 3 2 2 2 2 2 1 1 1 1 1 1 1 1 1 1 1 1 1 2 1 1 1 2 3 4 2 2 3 2 3 2 2 3 4
5 4 4 3 3 3 3 2 2 2 2 2 1 1 1 1 1 1 1 1 1 1 2 2 1 1 2 3 3 4 4 2 2 3 3 3 3 5
4 4 4 4 4 3 3 3 3 3 3 2 2 2 2 2 1 1 1 2 1 1 2 2 3 4 2 1 2 3 4 4 4 3 2 2 3 3
5 4 4 4 4 4 3 3 3 4 4 3 3 3 3 2 2 2 2 2 1 1 2 3 3 3 2 1 2 4 4 5 5 6 4 3 2 2
4 4 4 4 4 3 3 4 5 4 3 3 3 3 3 3 2 2 2 2 2 2 2 3 3 3 2 1 2 3 4 4 4 4 4 6 5 5
Wind_Direction
210 208 209 216 204 199 182 172 169 200 254 261 259 238 212 204 212 205 211 220 220 222 224 226 227 228 229 229 230 231 233 236 239 243 246 250 252 256
212 209 216 217 215 205 191 190 180 178 220 249 245 250 218 208 205 201 213 220 222 224 227 229 231 231 231 232 235 236 236 237 239 242 244 247 248 252
220 214 223 217 213 212 199 189 186 171 205 254 252 262 217 215 208 211 218 218 228 231 232 233 233 233 233 234 237 239 240 241 241 242 244 245 247 249
221 219 227 221 217 213 200 204 204 195 192 227 254 258 240 225 215 221 229 223 229 236 234 236 237 237 238 239 241 243 244 244 245 246 247 248 248 249
218 218 223 214 220 217 207 208 214 215 197 201 232 240 252 245 226 250 248 250 243 242 236 239 241 243 243 243 243 243 244 244 245 246 247 248 248 248
222 219 218 211 215 214 214 213 209 209 205 201 220 236 244 250 179 229 261 257 255 258 253 245 243 246 248 249 246 244 243 243 244 244 245 246 247 248
227 224 220 215 212 210 212 209 203 206 205 206 217 219 231 219 217 215 228 259 270 256 269 271 257 262 258 254 252 249 245 243 243 243 244 245 246 248
227 229 228 222 221 219 219 211 199 199 203 206 215 218 228 218 209 204 203 215 281 283 239 277 247 263 262 244 250 248 247 246 246 244 244 246 247 247
222 222 229 228 220 219 221 223 220 216 204 198 211 222 218 213 198 205 202 201 227 254 203 269 270 265 267 266 257 251 250 249 247 246 246 247 248 249
224 221 221 228 221 206 204 207 225 231 220 210 210 223 217 205 196 202 207 214 247 262 195 242 270 262 275 273 272 259 258 257 254 252 255 256 255 255
232 229 219 222 221 199 184 191 216 252 243 207 209 217 218 212 192 163 182 189 260 267 222 211 260 278 282 283 293 300 289 282 276 273 270 267 263 260
241 246 228 216 213 189 184 183 200 231 228 197 202 246 239 233 207 196 199 202 221 257 244 193 238 261 300 292 296 312 308 296 289 283 277 270 266 250
142 268 293 155 163 170 176 184 203 205 191 187 187 230 270 267 256 230 209 199 204 232 233 173 209 207 218 281 296 287 284 289 294 288 278 278 272 236
135 135 99 94 98 111 141 146 150 140 120 106 97 267 269 274 280 277 247 223 217 225 237 177 192 212 226 266 281 291 288 282 272 276 283 290 282 269
113 102 92 89 89 81 80 90 98 101 105 105 118 274 269 265 302 329 337 336 353 339 343 205 198 226 212 232 258 269 288 294 283 282 283 276 270 272
106 88 82 76 77 71 64 64 71 87 110 119 133 340 7 33 32 16 6 8 15 339 338 341 289 211 244 255 249 273 278 284 296 295 286 289 295 286
117 88 75 71 67 58 58 62 64 64 60 44 47 35 28 33 9 9 31 44 44 331 331 337 338 321 254 239 268 277 285 289 286 295 302 302 294 287
106 92 87 84 85 77 69 55 50 51 50 53 45 34 27 22 5 5 24 38 12 330 326 329 348 358 358 335 253 264 291 287 291 295 280 285 290 291
88 85 81 74 67 63 57 55 43 27 48 61 53 34 29 19 28 16 7 9 345 325 321 335 5 29 352 320 302 272 269 291 299 303 295 276 273 283
69 73 71 63 58 55 48 44 39 38 42 45 42 31 22 20 20 1 348 341 327 330 338 335 321 281 247 261 279 298 299 280 289 295 296 299 287 293
65 61 59 57 53 53 51 51 49 42 33 31 25 22 18 25 13 358 350 351 356 341 329 307 288 295 273 326 321 310 305 301 284 271 276 296 306 311
64 62 55 54 51 51 51 50 46 36 29 28 22 17 15 19 12 3 358 353 338 317 308 306 321 343 8 345 305 299 304 313 317 319 301 248 228 260
63 63 61 55 50 46 47 50 50 38 27 23 18 12 8 3 354 354 346 344 340 339 341 335 340 348 332 303 300 300 308 315 322 333 326 324 317 301